Burlington, NC

11:54 AM EST on December 16, 2017 (GMT -0500)
Burlington-Alamance Regional

Weather History for KBUY - February, 2014

Change the Weather History Date:

Monday, February 24, 2014

  Actual Average Record
Temperature  
Mean Temperature 48 °F -  
Max Temperature 59 °F 55 °F 77 °F (2012)
Min Temperature 34 °F 32 °F 13 °F (1967)
Degree Days  
Heating Degree Days 17    
Moisture  
Dew Point 22 °F    
Average Humidity 38    
Maximum Humidity 66    
Minimum Humidity 17    
Precipitation  
Precipitation 0.00 in - - ()
Sea Level Pressure  
Sea Level Pressure 30.04 in    
Wind  
Wind Speed 7 mph (NW)    
Max Wind Speed 16 mph    
Max Gust Speed 24 mph    
Visibility 10 miles    
Events      
Averages and records for this station are not official NWS values.
T = Trace of Precipitation, MM = Missing Value Source: NWS Daily Summary

Daily Weather History Graph

Daily Weather History Graph

Search for Another Location

Airport or City:

Trip Planner

Search our weather history database for the weather conditions in past years. The results will help you decide how hot, cold, wet, or windy it might be!

Date:

Astronomy

Feb. 24, 2014 Rise Set
Actual Time 6:54 AM EST 6:08 PM EST
Civil Twilight 6:28 AM EST 6:34 PM EST
Nautical Twilight 5:58 AM EST 7:03 PM EST
Astronomical Twilight 5:29 AM EST 7:33 PM EST
Moon 2:45 AM EST (2/24) 1:12 PM EST (2/24)
Length of Visible Light 12h 05m
Length of Day
11h 13m
Waning Crescent, 28% of the Moon is Illuminated
Feb 24
Waning Crescent
Mar 1
New
Mar 8
First Quarter
Mar 16
Full
Mar 23
Last Quarter

Hourly Weather History & Observations

Time (EST) Temp. Windchill Dew Point Humidity Pressure Visibility Wind Dir Wind Speed Gust Speed Precip Events Conditions
12:54 AM 48.9 °F - 37.9 °F 66% 29.89 in 10.0 mi WNW 8.1 mph - N/A   Clear
1:54 AM 51.1 °F - 30.9 °F 46% 29.91 in 10.0 mi NNW 9.2 mph - N/A   Clear
2:54 AM 48.0 °F - 28.9 °F 48% 29.91 in 10.0 mi North 3.5 mph - N/A   Clear
3:54 AM 46.9 °F - 28.9 °F 50% 29.93 in 10.0 mi North 3.5 mph - N/A   Clear
4:54 AM 43.0 °F 41.3 °F 30.9 °F 62% 29.96 in 10.0 mi NW 3.5 mph - N/A   Clear
5:54 AM 45.0 °F 41.8 °F 30.9 °F 58% 29.99 in 10.0 mi NNW 5.8 mph - N/A   Clear
6:54 AM 45.0 °F 42.6 °F 30.9 °F 58% 30.01 in 10.0 mi North 4.6 mph - N/A   Clear
7:54 AM 46.9 °F - 30.9 °F 54% 30.04 in 10.0 mi North 8.1 mph - N/A   Clear
8:54 AM 46.9 °F - 28.9 °F 50% 30.08 in 10.0 mi NW 9.2 mph - N/A   Clear
9:54 AM 50.0 °F - 28.0 °F 43% 30.09 in 10.0 mi WNW 8.1 mph - N/A   Clear
10:54 AM 53.1 °F - 25.0 °F 34% 30.09 in 10.0 mi NNW 13.8 mph - N/A   Clear
11:54 AM 55.0 °F - 18.0 °F 23% 30.07 in 10.0 mi NW 10.4 mph 19.6 mph N/A   Clear
12:54 PM 57.0 °F - 17.1 °F 21% 30.04 in 10.0 mi NNW 16.1 mph 21.9 mph N/A   Clear
1:54 PM 57.9 °F - 16.0 °F 19% 30.03 in 10.0 mi NW 13.8 mph 24.2 mph N/A   Clear
2:54 PM 57.9 °F - 14.0 °F 18% 30.03 in 10.0 mi WNW 11.5 mph 21.9 mph N/A   Clear
3:54 PM 59.0 °F - 14.0 °F 17% 30.04 in 10.0 mi NW 11.5 mph - N/A   Clear
4:54 PM 57.0 °F - 14.0 °F 18% 30.04 in 10.0 mi WNW 11.5 mph - N/A   Clear
5:54 PM 55.0 °F - 12.9 °F 19% 30.06 in 10.0 mi NNW 8.1 mph - N/A   Clear
6:54 PM 51.1 °F - 14.0 °F 23% 30.09 in 10.0 mi NNW 8.1 mph - N/A   Clear
7:54 PM 48.9 °F - 12.0 °F 23% 30.11 in 10.0 mi Variable 3.5 mph - N/A   Clear
8:54 PM 46.9 °F - 10.9 °F 23% 30.11 in 10.0 mi NNW 3.5 mph - N/A   Clear
9:54 PM 37.9 °F - 15.1 °F 39% 30.13 in 10.0 mi Calm Calm - N/A   Clear
10:54 PM 37.0 °F - 17.1 °F 44% 30.14 in 10.0 mi Calm Calm - N/A   Clear
11:54 PM 34.0 °F - 19.0 °F 54% 30.13 in 10.0 mi Calm Calm - N/A   Clear